Year,Month,Day,Hour,Minute,Value (Times are PST for temperature in C)
2009,03,11,00,00,-5.70
2009,03,11,00,01,-5.70
2009,03,11,00,02,-5.70
2009,03,11,00,03,-5.70
2009,03,11,00,04,-5.70
2009,03,11,00,05,-5.70
2009,03,11,00,06,-5.70
2009,03,11,00,07,-5.70
2009,03,11,00,08,-5.70
2009,03,11,00,09,-5.70
2009,03,11,00,10,-5.80
2009,03,11,00,11,-5.80
2009,03,11,00,12,-5.80
2009,03,11,00,13,-5.90
2009,03,11,00,14,-5.90
2009,03,11,00,15,-6.00
2009,03,11,00,16,-6.00
2009,03,11,00,17,-6.00
2009,03,11,00,18,-6.10
2009,03,11,00,19,-6.10
2009,03,11,00,20,-6.20
2009,03,11,00,21,-6.20
2009,03,11,00,22,-6.20
2009,03,11,00,23,-6.30
2009,03,11,00,24,-6.30
2009,03,11,00,25,-6.30
2009,03,11,00,26,-6.30
2009,03,11,00,27,-6.40
2009,03,11,00,28,-6.40
2009,03,11,00,29,-6.40
2009,03,11,00,30,-6.40
2009,03,11,00,31,-6.40
2009,03,11,00,32,-6.40
2009,03,11,00,33,-6.30
2009,03,11,00,34,-6.30
2009,03,11,00,35,-6.30
2009,03,11,00,36,-6.30
2009,03,11,00,37,-6.30
2009,03,11,00,38,-6.30
2009,03,11,00,39,-6.30
2009,03,11,00,40,-6.30
2009,03,11,00,41,-6.30
2009,03,11,00,42,-6.30
2009,03,11,00,43,-6.30
2009,03,11,00,44,-6.30
2009,03,11,00,45,-6.30
2009,03,11,00,46,-6.30
2009,03,11,00,47,-6.30
2009,03,11,00,48,-6.40
2009,03,11,00,49,-6.40
2009,03,11,00,50,-6.40
2009,03,11,00,51,-6.40
2009,03,11,00,52,-6.50
2009,03,11,00,53,-6.50
2009,03,11,00,54,-6.50
2009,03,11,00,55,-6.50
2009,03,11,00,56,-6.60
2009,03,11,00,57,-6.60
2009,03,11,00,58,-6.50
2009,03,11,00,59,-6.50
2009,03,11,01,00,-6.40
2009,03,11,01,01,-6.40
2009,03,11,01,02,-6.40
2009,03,11,01,03,-6.50
2009,03,11,01,04,-6.50
2009,03,11,01,05,-6.50
2009,03,11,01,06,-6.60
2009,03,11,01,07,-6.60
2009,03,11,01,08,-6.60
2009,03,11,01,09,-6.60
2009,03,11,01,10,-6.60
2009,03,11,01,11,-6.70
2009,03,11,01,12,-6.70
2009,03,11,01,13,-6.80
2009,03,11,01,14,-6.80
2009,03,11,01,15,-6.80
2009,03,11,01,16,-6.80
2009,03,11,01,17,-6.80
2009,03,11,01,18,-6.80
2009,03,11,01,19,-6.80
2009,03,11,01,20,-6.80
2009,03,11,01,21,-6.80
2009,03,11,01,22,-6.80
2009,03,11,01,23,-6.90
2009,03,11,01,24,-6.90
2009,03,11,01,25,-6.90
2009,03,11,01,26,-7.00
2009,03,11,01,27,-7.00
2009,03,11,01,28,-7.00
2009,03,11,01,29,-7.00
2009,03,11,01,30,-6.90
2009,03,11,01,31,-6.80
2009,03,11,01,32,-6.80
2009,03,11,01,33,-6.70
2009,03,11,01,34,-6.60
2009,03,11,01,35,-6.50
2009,03,11,01,36,-6.50
2009,03,11,01,37,-6.40
2009,03,11,01,38,-6.40
2009,03,11,01,39,-6.40
2009,03,11,01,40,-6.50
2009,03,11,01,41,-6.50
2009,03,11,01,42,-6.50
2009,03,11,01,43,-6.50
2009,03,11,01,44,-6.50
2009,03,11,01,45,-6.60
2009,03,11,01,46,-6.60
2009,03,11,01,47,-6.60
2009,03,11,01,48,-6.60
2009,03,11,01,49,-6.70
2009,03,11,01,50,-6.70
2009,03,11,01,51,-6.70
2009,03,11,01,52,-6.70
2009,03,11,01,53,-6.70
2009,03,11,01,54,-6.80
2009,03,11,01,55,-6.80
2009,03,11,01,56,-6.80
2009,03,11,01,57,-6.80
2009,03,11,01,58,-6.80
2009,03,11,01,59,-6.80
2009,03,11,02,00,-6.80
2009,03,11,02,01,-6.80
2009,03,11,02,02,-6.80
2009,03,11,02,03,-6.80
2009,03,11,02,04,-6.80
2009,03,11,02,05,-6.80
2009,03,11,02,06,-6.80
2009,03,11,02,07,-6.80
2009,03,11,02,08,-6.70
2009,03,11,02,09,-6.70
2009,03,11,02,10,-6.60
2009,03,11,02,11,-6.60
2009,03,11,02,12,-6.60
2009,03,11,02,13,-6.50
2009,03,11,02,14,-6.50
2009,03,11,02,15,-6.40
2009,03,11,02,16,-6.40
2009,03,11,02,17,-6.30
2009,03,11,02,18,-6.30
2009,03,11,02,19,-6.30
2009,03,11,02,20,-6.30
2009,03,11,02,21,-6.30
2009,03,11,02,22,-6.30
2009,03,11,02,23,-6.30
2009,03,11,02,24,-6.30
2009,03,11,02,25,-6.30
2009,03,11,02,26,-6.30
2009,03,11,02,27,-6.30
2009,03,11,02,28,-6.30
2009,03,11,02,29,-6.30
2009,03,11,02,30,-6.30
2009,03,11,02,31,-6.40
2009,03,11,02,32,-6.40
2009,03,11,02,33,-6.40
2009,03,11,02,34,-6.40
2009,03,11,02,35,-6.40
2009,03,11,02,36,-6.40
2009,03,11,02,37,-6.40
2009,03,11,02,38,-6.40
2009,03,11,02,39,-6.40
2009,03,11,02,40,-6.40
2009,03,11,02,41,-6.40
2009,03,11,02,42,-6.40
2009,03,11,02,43,-6.30
2009,03,11,02,44,-6.30
2009,03,11,02,45,-6.30
2009,03,11,02,46,-6.30
2009,03,11,02,47,-6.30
2009,03,11,02,48,-6.30
2009,03,11,02,49,-6.30
2009,03,11,02,50,-6.20
2009,03,11,02,51,-6.20
2009,03,11,02,52,-6.20
2009,03,11,02,53,-6.20
2009,03,11,02,54,-6.30
2009,03,11,02,55,-6.30
2009,03,11,02,56,-6.30
2009,03,11,02,57,-6.30
2009,03,11,02,58,-6.30
2009,03,11,02,59,-6.20
2009,03,11,03,00,-6.20
2009,03,11,03,01,-6.20
2009,03,11,03,02,-6.20
2009,03,11,03,03,-6.20
2009,03,11,03,04,-6.30
2009,03,11,03,05,-6.30
2009,03,11,03,06,-6.30
2009,03,11,03,07,-6.30
2009,03,11,03,08,-6.30
2009,03,11,03,09,-6.30
2009,03,11,03,10,-6.30
2009,03,11,03,11,-6.40
2009,03,11,03,12,-6.40
2009,03,11,03,13,-6.40
2009,03,11,03,14,-6.40
2009,03,11,03,15,-6.40
2009,03,11,03,16,-6.40
2009,03,11,03,17,-6.40
2009,03,11,03,18,-6.40
2009,03,11,03,19,-6.40
2009,03,11,03,20,-6.40
2009,03,11,03,21,-6.30
2009,03,11,03,22,-6.30
2009,03,11,03,23,-6.30
2009,03,11,03,24,-6.30
2009,03,11,03,25,-6.30
2009,03,11,03,26,-6.30
2009,03,11,03,27,-6.20
2009,03,11,03,28,-6.20
2009,03,11,03,29,-6.20
2009,03,11,03,30,-6.20
2009,03,11,03,31,-6.10
2009,03,11,03,32,-6.10
2009,03,11,03,33,-6.10
2009,03,11,03,34,-6.10
2009,03,11,03,35,-6.10
2009,03,11,03,36,-6.10
2009,03,11,03,37,-6.10
2009,03,11,03,38,-6.10
2009,03,11,03,39,-6.10
2009,03,11,03,40,-6.10
2009,03,11,03,41,-6.20
2009,03,11,03,42,-6.20
2009,03,11,03,43,-6.20
2009,03,11,03,44,-6.20
2009,03,11,03,45,-6.20
2009,03,11,03,46,-6.20
2009,03,11,03,47,-6.20
2009,03,11,03,48,-6.30
2009,03,11,03,49,-6.30
2009,03,11,03,50,-6.30
2009,03,11,03,51,-6.30
2009,03,11,03,52,-6.30
2009,03,11,03,53,-6.30
2009,03,11,03,54,-6.30
2009,03,11,03,55,-6.30
2009,03,11,03,56,-6.30
2009,03,11,03,57,-6.20
2009,03,11,03,58,-6.20
2009,03,11,03,59,-6.20
2009,03,11,04,00,-6.20
2009,03,11,04,01,-6.20
2009,03,11,04,02,-6.20
2009,03,11,04,03,-6.20
2009,03,11,04,04,-6.20
2009,03,11,04,05,-6.20
2009,03,11,04,06,-6.20
2009,03,11,04,07,-6.20
2009,03,11,04,08,-6.20
2009,03,11,04,09,-6.10
2009,03,11,04,10,-6.10
2009,03,11,04,11,-6.00
2009,03,11,04,12,-6.00
2009,03,11,04,13,-5.90
2009,03,11,04,14,-5.90
2009,03,11,04,15,-5.90
2009,03,11,04,16,-5.90
2009,03,11,04,17,-5.80
2009,03,11,04,18,-5.80
2009,03,11,04,19,-5.80
2009,03,11,04,20,-5.80
2009,03,11,04,21,-5.80
2009,03,11,04,22,-5.80
2009,03,11,04,23,-5.70
2009,03,11,04,24,-5.70
2009,03,11,04,25,-5.70
2009,03,11,04,26,-5.70
2009,03,11,04,27,-5.60
2009,03,11,04,28,-5.60
2009,03,11,04,29,-5.50
2009,03,11,04,30,-5.50
2009,03,11,04,31,-5.40
2009,03,11,04,32,-5.40
2009,03,11,04,33,-5.40
2009,03,11,04,34,-5.40
2009,03,11,04,35,-5.40
2009,03,11,04,36,-5.40
2009,03,11,04,37,-5.30
2009,03,11,04,38,-5.30
2009,03,11,04,39,-5.20
2009,03,11,04,40,-5.20
2009,03,11,04,41,-5.10
2009,03,11,04,42,-5.00
2009,03,11,04,43,-5.00
2009,03,11,04,44,-5.00
2009,03,11,04,45,-4.90
2009,03,11,04,46,-4.90
2009,03,11,04,47,-4.90
2009,03,11,04,48,-4.90
2009,03,11,04,49,-4.90
2009,03,11,04,50,-4.90
2009,03,11,04,51,-4.90
2009,03,11,04,52,-4.90
2009,03,11,04,53,-4.90
2009,03,11,04,54,-4.90
2009,03,11,04,55,-4.90
2009,03,11,04,56,-4.90
2009,03,11,04,57,-4.90
2009,03,11,04,58,-4.90
2009,03,11,04,59,-4.90
2009,03,11,05,00,-4.90
2009,03,11,05,01,-4.90
2009,03,11,05,02,-4.90
2009,03,11,05,03,-4.90
2009,03,11,05,04,-4.80
2009,03,11,05,05,-4.90
2009,03,11,05,06,-4.90
2009,03,11,05,07,-4.90
2009,03,11,05,08,-4.90
2009,03,11,05,09,-4.90
2009,03,11,05,10,-5.00
2009,03,11,05,11,-5.00
2009,03,11,05,12,-5.10
2009,03,11,05,13,-5.10
2009,03,11,05,14,-5.10
2009,03,11,05,15,-5.20
2009,03,11,05,16,-5.20
2009,03,11,05,17,-5.30
2009,03,11,05,18,-5.30
2009,03,11,05,19,-5.40
2009,03,11,05,20,-5.40
2009,03,11,05,21,-5.50
2009,03,11,05,22,-5.50
2009,03,11,05,23,-5.60
2009,03,11,05,24,-5.60
2009,03,11,05,25,-5.70
2009,03,11,05,26,-5.70
2009,03,11,05,27,-5.70
2009,03,11,05,28,-5.80
2009,03,11,05,29,-5.80
2009,03,11,05,30,-5.90
2009,03,11,05,31,-5.90
2009,03,11,05,32,-5.90
2009,03,11,05,33,-6.00
2009,03,11,05,34,-6.00
2009,03,11,05,35,-6.10
2009,03,11,05,36,-6.10
2009,03,11,05,37,-6.10
2009,03,11,05,38,-6.20
2009,03,11,05,39,-6.20
2009,03,11,05,40,-6.20
2009,03,11,05,41,-6.30
2009,03,11,05,42,-6.30
2009,03,11,05,43,-6.30
2009,03,11,05,44,-6.30
2009,03,11,05,45,-6.30
2009,03,11,05,46,-6.40
2009,03,11,05,47,-6.40
2009,03,11,05,48,-6.50
2009,03,11,05,49,-6.50
2009,03,11,05,50,-6.50
2009,03,11,05,51,-6.60
2009,03,11,05,52,-6.60
2009,03,11,05,53,-6.60
2009,03,11,05,54,-6.60
2009,03,11,05,55,-6.60
2009,03,11,05,56,-6.60
2009,03,11,05,57,-6.50
2009,03,11,05,58,-6.50
2009,03,11,05,59,-6.40
2009,03,11,06,00,-6.40
2009,03,11,06,01,-6.40
2009,03,11,06,02,-6.40
2009,03,11,06,03,-6.40
2009,03,11,06,04,-6.40
2009,03,11,06,05,-6.50
2009,03,11,06,06,-6.50
2009,03,11,06,07,-6.50
2009,03,11,06,08,-6.40
2009,03,11,06,09,-6.40
2009,03,11,06,10,-6.40
2009,03,11,06,11,-6.30
2009,03,11,06,12,-6.30
2009,03,11,06,13,-6.30
2009,03,11,06,14,-6.20
2009,03,11,06,15,-6.20
2009,03,11,06,16,-6.20
2009,03,11,06,17,-6.20
2009,03,11,06,18,-6.20
2009,03,11,06,19,-6.30
2009,03,11,06,20,-6.30
2009,03,11,06,21,-6.30
2009,03,11,06,22,-6.30
2009,03,11,06,23,-6.30
2009,03,11,06,24,-6.30
2009,03,11,06,25,-6.30
2009,03,11,06,26,-6.30
2009,03,11,06,27,-6.30
2009,03,11,06,28,-6.30
2009,03,11,06,29,-6.30
2009,03,11,06,30,-6.30
2009,03,11,06,31,-6.20
2009,03,11,06,32,-6.20
2009,03,11,06,33,-6.20
2009,03,11,06,34,-6.20
2009,03,11,06,35,-6.30
2009,03,11,06,36,-6.30
2009,03,11,06,37,-6.30
2009,03,11,06,38,-6.30
2009,03,11,06,39,-6.30
2009,03,11,06,40,-6.30
2009,03,11,06,41,-6.30
2009,03,11,06,42,-6.20
2009,03,11,06,43,-6.20
2009,03,11,06,44,-6.20
2009,03,11,06,45,-6.20
2009,03,11,06,46,-6.20
2009,03,11,06,47,-6.20
2009,03,11,06,48,-6.20
2009,03,11,06,49,-6.20
2009,03,11,06,50,-6.20
2009,03,11,06,51,-6.20
2009,03,11,06,52,-6.30
2009,03,11,06,53,-6.30
2009,03,11,06,54,-6.40
2009,03,11,06,55,-6.40
2009,03,11,06,56,-6.50
2009,03,11,06,57,-6.50
2009,03,11,06,58,-6.50
2009,03,11,06,59,-6.60
2009,03,11,07,00,-6.60
2009,03,11,07,01,-6.60
2009,03,11,07,02,-6.60
2009,03,11,07,03,-6.60
2009,03,11,07,04,-6.70
2009,03,11,07,05,-6.70
2009,03,11,07,06,-6.70
2009,03,11,07,07,-6.80
2009,03,11,07,08,-6.80
2009,03,11,07,09,-6.80
2009,03,11,07,10,-6.80
2009,03,11,07,11,-6.90
2009,03,11,07,12,-6.90
2009,03,11,07,13,-6.90
2009,03,11,07,14,-6.90
2009,03,11,07,15,-6.80
2009,03,11,07,16,-6.80
2009,03,11,07,17,-6.80
2009,03,11,07,18,-6.80
2009,03,11,07,19,-6.80
2009,03,11,07,20,-6.80
2009,03,11,07,21,-6.80
2009,03,11,07,22,-6.80
2009,03,11,07,23,-6.80
2009,03,11,07,24,-6.80
2009,03,11,07,25,-6.80
2009,03,11,07,26,-6.80
2009,03,11,07,27,-6.80
2009,03,11,07,28,-6.80
2009,03,11,07,29,-6.80
2009,03,11,07,30,-6.80
2009,03,11,07,31,-6.80
2009,03,11,07,32,-6.80
2009,03,11,07,33,-6.80
2009,03,11,07,34,-6.90
2009,03,11,07,35,-6.90
2009,03,11,07,36,-7.00
2009,03,11,07,37,-7.10
2009,03,11,07,38,-7.10
2009,03,11,07,39,-7.10
2009,03,11,07,40,-7.10
2009,03,11,07,41,-7.10
2009,03,11,07,42,-7.10
2009,03,11,07,43,-7.10
2009,03,11,07,44,-7.10
2009,03,11,07,45,-7.10
2009,03,11,07,46,-7.10
2009,03,11,07,47,-7.10
2009,03,11,07,48,-7.10
2009,03,11,07,49,-7.10
2009,03,11,07,50,-7.20
2009,03,11,07,51,-7.20
2009,03,11,07,52,-7.20
2009,03,11,07,53,-7.20
2009,03,11,07,54,-7.30
2009,03,11,07,55,-7.30
2009,03,11,07,56,-7.30
2009,03,11,07,57,-7.40
2009,03,11,07,58,-7.40
2009,03,11,07,59,-7.40
2009,03,11,08,00,-7.40
2009,03,11,08,01,-7.40
2009,03,11,08,02,-7.40
2009,03,11,08,03,-7.40
2009,03,11,08,04,-7.40
2009,03,11,08,05,-7.40
2009,03,11,08,06,-7.30
2009,03,11,08,07,-7.30
2009,03,11,08,08,-7.20
2009,03,11,08,09,-7.20
2009,03,11,08,10,-7.10
2009,03,11,08,11,-7.10
2009,03,11,08,12,-7.10
2009,03,11,08,13,-7.10
2009,03,11,08,14,-7.10
2009,03,11,08,15,-7.10
2009,03,11,08,16,-7.10
2009,03,11,08,17,-7.00
2009,03,11,08,18,-6.90
2009,03,11,08,19,-6.80
2009,03,11,08,20,-6.80
2009,03,11,08,21,-6.80
2009,03,11,08,22,-6.80
2009,03,11,08,23,-6.80
2009,03,11,08,24,-6.70
2009,03,11,08,25,-6.60
2009,03,11,08,26,-6.60
2009,03,11,08,27,-6.50
2009,03,11,08,28,-6.40
2009,03,11,08,29,-6.40
2009,03,11,08,30,-6.30
2009,03,11,08,31,-6.30
2009,03,11,08,32,-6.30
2009,03,11,08,33,-6.20
2009,03,11,08,34,-6.20
2009,03,11,08,35,-6.20
2009,03,11,08,36,-6.20
2009,03,11,08,37,-6.10
2009,03,11,08,38,-6.00
2009,03,11,08,39,-6.00
2009,03,11,08,40,-5.90
2009,03,11,08,41,-5.80
2009,03,11,08,42,-5.80
2009,03,11,08,43,-5.70
2009,03,11,08,44,-5.70
2009,03,11,08,45,-5.60
2009,03,11,08,46,-5.50
2009,03,11,08,47,-5.40
2009,03,11,08,48,-5.30
2009,03,11,08,49,-5.20
2009,03,11,08,50,-5.10
2009,03,11,08,51,-5.00
2009,03,11,08,52,-4.90
2009,03,11,08,53,-4.80
2009,03,11,08,54,-4.70
2009,03,11,08,55,-4.50
2009,03,11,08,56,-4.40
2009,03,11,08,57,-4.40
2009,03,11,08,58,-4.30
2009,03,11,08,59,-4.20
2009,03,11,09,00,-4.10
2009,03,11,09,01,-4.00
2009,03,11,09,02,-3.90
2009,03,11,09,03,-3.80
2009,03,11,09,04,-3.80
2009,03,11,09,05,-3.80
2009,03,11,09,06,-3.70
2009,03,11,09,07,-3.60
2009,03,11,09,08,-3.50
2009,03,11,09,09,-3.30
2009,03,11,09,10,-3.20
2009,03,11,09,11,-3.00
2009,03,11,09,12,-2.90
2009,03,11,09,13,-2.80
2009,03,11,09,14,-2.70
2009,03,11,09,15,-2.70
2009,03,11,09,16,-2.60
2009,03,11,09,17,-2.50
2009,03,11,09,18,-2.40
2009,03,11,09,19,-2.30
2009,03,11,09,20,-2.20
2009,03,11,09,21,-2.20
2009,03,11,09,22,-2.10
2009,03,11,09,23,-2.00
2009,03,11,09,24,-2.00
2009,03,11,09,25,-2.00
2009,03,11,09,26,-2.00
2009,03,11,09,27,-2.00
2009,03,11,09,28,-2.00
2009,03,11,09,29,-2.00
2009,03,11,09,30,-1.90
2009,03,11,09,31,-1.90
2009,03,11,09,32,-1.90
2009,03,11,09,33,-1.90
2009,03,11,09,34,-1.90
2009,03,11,09,35,-1.90
2009,03,11,09,36,-1.90
2009,03,11,09,37,-1.80
2009,03,11,09,38,-1.80
2009,03,11,09,39,-1.70
2009,03,11,09,40,-1.60
2009,03,11,09,41,-1.60
2009,03,11,09,42,-1.50
2009,03,11,09,43,-1.50
2009,03,11,09,44,-1.40
2009,03,11,09,45,-1.30
2009,03,11,09,46,-1.30
2009,03,11,09,47,-1.20
2009,03,11,09,48,-1.10
2009,03,11,09,49,-1.00
2009,03,11,09,50,-0.90
2009,03,11,09,51,-0.90
2009,03,11,09,52,-0.80
2009,03,11,09,53,-0.80
2009,03,11,09,54,-0.70
2009,03,11,09,55,-0.70
2009,03,11,09,56,-0.60
2009,03,11,09,57,-0.60
2009,03,11,09,58,-0.50
2009,03,11,09,59,-0.40
2009,03,11,10,00,-0.40
2009,03,11,10,01,-0.30
2009,03,11,10,02,-0.30
2009,03,11,10,03,-0.20
2009,03,11,10,04,-0.10
2009,03,11,10,05,0.00
2009,03,11,10,06,0.10
2009,03,11,10,07,0.10
2009,03,11,10,08,0.10
2009,03,11,10,09,0.20
2009,03,11,10,10,0.20
2009,03,11,10,11,0.20
2009,03,11,10,12,0.30
2009,03,11,10,13,0.30
2009,03,11,10,14,0.30
2009,03,11,10,15,0.30
2009,03,11,10,16,0.30
2009,03,11,10,17,0.30
2009,03,11,10,18,0.30
2009,03,11,10,19,0.30
2009,03,11,10,20,0.30
2009,03,11,10,21,0.30
2009,03,11,10,22,0.30
2009,03,11,10,23,0.30
2009,03,11,10,24,0.30
2009,03,11,10,25,0.40
2009,03,11,10,26,0.50
2009,03,11,10,27,0.60
2009,03,11,10,28,0.70
2009,03,11,10,29,0.80
2009,03,11,10,30,0.90
2009,03,11,10,31,1.00
2009,03,11,10,32,1.10
2009,03,11,10,33,1.10
2009,03,11,10,34,1.20
2009,03,11,10,35,1.30
2009,03,11,10,36,1.30
2009,03,11,10,37,1.30
2009,03,11,10,38,1.30
2009,03,11,10,39,1.20
2009,03,11,10,40,1.10
2009,03,11,10,41,1.10
2009,03,11,10,42,1.10
2009,03,11,10,43,1.00
2009,03,11,10,44,0.90
2009,03,11,10,45,0.90
2009,03,11,10,46,0.80
2009,03,11,10,47,0.80
2009,03,11,10,48,0.80
2009,03,11,10,49,0.80
2009,03,11,10,50,0.80
2009,03,11,10,51,0.80
2009,03,11,10,52,0.80
2009,03,11,10,53,0.70
2009,03,11,10,54,0.70
2009,03,11,10,55,0.70
2009,03,11,10,56,0.70
2009,03,11,10,57,0.70
2009,03,11,10,58,0.70
2009,03,11,10,59,0.70
2009,03,11,11,00,0.70
2009,03,11,11,01,0.80
2009,03,11,11,02,0.80
2009,03,11,11,03,0.80
2009,03,11,11,04,0.90
2009,03,11,11,05,0.80
2009,03,11,11,06,0.80
2009,03,11,11,07,0.90
2009,03,11,11,08,0.90
2009,03,11,11,09,0.90
2009,03,11,11,10,1.00
2009,03,11,11,11,1.00
2009,03,11,11,12,1.10
2009,03,11,11,13,1.20
2009,03,11,11,14,1.20
2009,03,11,11,15,1.30
2009,03,11,11,16,1.30
2009,03,11,11,17,1.20
2009,03,11,11,18,1.20
2009,03,11,11,19,1.20
2009,03,11,11,20,1.20
2009,03,11,11,21,1.30
2009,03,11,11,22,1.30
2009,03,11,11,23,1.30
2009,03,11,11,24,1.30
2009,03,11,11,25,1.30
2009,03,11,11,26,1.30
2009,03,11,11,27,1.30
2009,03,11,11,28,1.30
2009,03,11,11,29,1.30
2009,03,11,11,30,1.30
2009,03,11,11,31,1.30
2009,03,11,11,32,1.30
2009,03,11,11,33,1.30
2009,03,11,11,34,1.30
2009,03,11,11,35,1.40
2009,03,11,11,36,1.40
2009,03,11,11,37,1.40
2009,03,11,11,38,1.50
2009,03,11,11,39,1.50
2009,03,11,11,40,1.60
2009,03,11,11,41,1.70
2009,03,11,11,42,1.70
2009,03,11,11,43,1.80
2009,03,11,11,44,1.80
2009,03,11,11,45,1.80
2009,03,11,11,46,1.70
2009,03,11,11,47,1.70
2009,03,11,11,48,1.60
2009,03,11,11,49,1.50
2009,03,11,11,50,1.40
2009,03,11,11,51,1.30
2009,03,11,11,52,1.30
2009,03,11,11,53,1.30
2009,03,11,11,54,1.30
2009,03,11,11,55,1.30
2009,03,11,11,56,1.30
2009,03,11,11,57,1.30
2009,03,11,11,58,1.30
2009,03,11,11,59,1.30
2009,03,11,12,00,1.30
2009,03,11,12,01,1.30
2009,03,11,12,02,1.30
2009,03,11,12,03,1.30
2009,03,11,12,04,1.30
2009,03,11,12,05,1.40
2009,03,11,12,06,1.40
2009,03,11,12,07,1.40
2009,03,11,12,08,1.30
2009,03,11,12,09,1.30
2009,03,11,12,10,1.30
2009,03,11,12,11,1.30
2009,03,11,12,12,1.30
2009,03,11,12,13,1.30
2009,03,11,12,14,1.40
2009,03,11,12,15,1.50
2009,03,11,12,16,1.60
2009,03,11,12,17,1.70
2009,03,11,12,18,1.70
2009,03,11,12,19,1.70
2009,03,11,12,20,1.60
2009,03,11,12,21,1.60
2009,03,11,12,22,1.60
2009,03,11,12,23,1.70
2009,03,11,12,24,1.70
2009,03,11,12,25,1.70
2009,03,11,12,26,1.70
2009,03,11,12,27,1.80
2009,03,11,12,28,1.80
2009,03,11,12,29,1.80
2009,03,11,12,30,1.80
2009,03,11,12,31,1.80
2009,03,11,12,32,1.80
2009,03,11,12,33,1.80
2009,03,11,12,34,1.80
2009,03,11,12,35,1.70
2009,03,11,12,36,1.70
2009,03,11,12,37,1.70
2009,03,11,12,38,1.70
2009,03,11,12,39,1.70
2009,03,11,12,40,1.70
2009,03,11,12,41,1.80
2009,03,11,12,42,1.80
2009,03,11,12,43,1.80
2009,03,11,12,44,1.80
2009,03,11,12,45,1.80
2009,03,11,12,46,1.80
2009,03,11,12,47,1.80
2009,03,11,12,48,1.80
2009,03,11,12,49,1.80
2009,03,11,12,50,1.80
2009,03,11,12,51,1.80
2009,03,11,12,52,1.80
2009,03,11,12,53,1.80
2009,03,11,12,54,1.90
2009,03,11,12,55,2.00
2009,03,11,12,56,2.00
2009,03,11,12,57,2.10
2009,03,11,12,58,2.20
2009,03,11,12,59,2.20
2009,03,11,13,00,2.20
2009,03,11,13,01,2.30
2009,03,11,13,02,2.30
2009,03,11,13,03,2.30
2009,03,11,13,04,2.40
2009,03,11,13,05,2.30
2009,03,11,13,06,2.30
2009,03,11,13,07,2.20
2009,03,11,13,08,2.10
2009,03,11,13,09,2.10
2009,03,11,13,10,2.00
2009,03,11,13,11,2.00
2009,03,11,13,12,2.00
2009,03,11,13,13,2.10
2009,03,11,13,14,2.10
2009,03,11,13,15,2.10
2009,03,11,13,16,2.10
2009,03,11,13,17,2.10
2009,03,11,13,18,2.10
2009,03,11,13,19,2.10
2009,03,11,13,20,2.20
2009,03,11,13,21,2.20
2009,03,11,13,22,2.30
2009,03,11,13,23,2.30
2009,03,11,13,24,2.40
2009,03,11,13,25,2.40
2009,03,11,13,26,2.30
2009,03,11,13,27,2.30
2009,03,11,13,28,2.30
2009,03,11,13,29,2.30
2009,03,11,13,30,2.20
2009,03,11,13,31,2.20
2009,03,11,13,32,2.20
2009,03,11,13,33,2.10
2009,03,11,13,34,2.10
2009,03,11,13,35,2.20
2009,03,11,13,36,2.20
2009,03,11,13,37,2.20
2009,03,11,13,38,2.20
2009,03,11,13,39,2.20
2009,03,11,13,40,2.30
2009,03,11,13,41,2.30
2009,03,11,13,42,2.30
2009,03,11,13,43,2.30
2009,03,11,13,44,2.30
2009,03,11,13,45,2.30
2009,03,11,13,46,2.30
2009,03,11,13,47,2.30
2009,03,11,13,48,2.20
2009,03,11,13,49,2.20
2009,03,11,13,50,2.20
2009,03,11,13,51,2.20
2009,03,11,13,52,2.20
2009,03,11,13,53,2.20
2009,03,11,13,54,2.20
2009,03,11,13,55,2.20
2009,03,11,13,56,2.20
2009,03,11,13,57,2.10
2009,03,11,13,58,2.00
2009,03,11,13,59,2.00
2009,03,11,14,00,1.90
2009,03,11,14,01,2.00
2009,03,11,14,02,2.00
2009,03,11,14,03,2.10
2009,03,11,14,04,2.20
2009,03,11,14,05,2.30
2009,03,11,14,06,2.30
2009,03,11,14,07,2.30
2009,03,11,14,08,2.30
2009,03,11,14,09,2.40
2009,03,11,14,10,2.40
2009,03,11,14,11,2.30
2009,03,11,14,12,2.30
2009,03,11,14,13,2.30
2009,03,11,14,14,2.30
2009,03,11,14,15,2.30
2009,03,11,14,16,2.30
2009,03,11,14,17,2.30
2009,03,11,14,18,2.40
2009,03,11,14,19,2.40
2009,03,11,14,20,2.50
2009,03,11,14,21,2.60
2009,03,11,14,22,2.70
2009,03,11,14,23,2.80
2009,03,11,14,24,2.80
2009,03,11,14,25,2.80
2009,03,11,14,26,2.90
2009,03,11,14,27,2.90
2009,03,11,14,28,2.90
2009,03,11,14,29,2.90
2009,03,11,14,30,2.90
2009,03,11,14,31,2.90
2009,03,11,14,32,2.80
2009,03,11,14,33,2.80
2009,03,11,14,34,2.90
2009,03,11,14,35,2.90
2009,03,11,14,36,2.90
2009,03,11,14,37,2.90
2009,03,11,14,38,3.00
2009,03,11,14,39,3.00
2009,03,11,14,40,2.90
2009,03,11,14,41,2.90
2009,03,11,14,42,2.90
2009,03,11,14,43,2.80
2009,03,11,14,44,2.70
2009,03,11,14,45,2.70
2009,03,11,14,46,2.70
2009,03,11,14,47,2.70
2009,03,11,14,48,2.70
2009,03,11,14,49,2.70
2009,03,11,14,50,2.70
2009,03,11,14,51,2.70
2009,03,11,14,52,2.70
2009,03,11,14,53,2.60
2009,03,11,14,54,2.60
2009,03,11,14,55,2.60
2009,03,11,14,56,2.60
2009,03,11,14,57,2.60
2009,03,11,14,58,2.60
2009,03,11,14,59,2.70
2009,03,11,15,00,2.70
2009,03,11,15,01,2.70
2009,03,11,15,02,2.70
2009,03,11,15,03,2.70
2009,03,11,15,04,2.60
2009,03,11,15,05,2.60
2009,03,11,15,06,2.60
2009,03,11,15,07,2.60
2009,03,11,15,08,2.70
2009,03,11,15,09,2.70
2009,03,11,15,10,2.70
2009,03,11,15,11,2.80
2009,03,11,15,12,2.80
2009,03,11,15,13,2.80
2009,03,11,15,14,2.80
2009,03,11,15,15,2.80
2009,03,11,15,16,2.80
2009,03,11,15,17,2.80
2009,03,11,15,18,2.80
2009,03,11,15,19,2.80
2009,03,11,15,20,2.80
2009,03,11,15,21,2.90
2009,03,11,15,22,2.90
2009,03,11,15,23,2.90
2009,03,11,15,24,2.90
2009,03,11,15,25,2.80
2009,03,11,15,26,2.80
2009,03,11,15,27,2.70
2009,03,11,15,28,2.80
2009,03,11,15,29,2.80
2009,03,11,15,30,2.70
2009,03,11,15,31,2.80
2009,03,11,15,32,2.80
2009,03,11,15,33,2.70
2009,03,11,15,34,2.80
2009,03,11,15,35,2.80
2009,03,11,15,36,2.80
2009,03,11,15,37,2.90
2009,03,11,15,38,2.90
2009,03,11,15,39,2.90
2009,03,11,15,40,2.90
2009,03,11,15,41,3.00
2009,03,11,15,42,3.00
2009,03,11,15,43,3.00
2009,03,11,15,44,3.00
2009,03,11,15,45,3.00
2009,03,11,15,46,3.10
2009,03,11,15,47,3.20
2009,03,11,15,48,3.20
2009,03,11,15,49,3.20
2009,03,11,15,50,3.30
2009,03,11,15,51,3.30
2009,03,11,15,52,3.20
2009,03,11,15,53,3.20
2009,03,11,15,54,3.10
2009,03,11,15,55,3.10
2009,03,11,15,56,3.10
2009,03,11,15,57,3.10
2009,03,11,15,58,3.20
2009,03,11,15,59,3.20
2009,03,11,16,00,3.20
2009,03,11,16,01,3.20
2009,03,11,16,02,3.20
2009,03,11,16,03,3.20
2009,03,11,16,04,3.20
2009,03,11,16,05,3.20
2009,03,11,16,06,3.20
2009,03,11,16,07,3.20
2009,03,11,16,08,3.30
2009,03,11,16,09,3.40
2009,03,11,16,10,3.40
2009,03,11,16,11,3.40
2009,03,11,16,12,3.30
2009,03,11,16,13,3.30
2009,03,11,16,14,3.30
2009,03,11,16,15,3.30
2009,03,11,16,16,3.30
2009,03,11,16,17,3.30
2009,03,11,16,18,3.30
2009,03,11,16,19,3.30
2009,03,11,16,20,3.30
2009,03,11,16,21,3.40
2009,03,11,16,22,3.50
2009,03,11,16,23,3.50
2009,03,11,16,24,3.50
2009,03,11,16,25,3.50
2009,03,11,16,26,3.50
2009,03,11,16,27,3.50
2009,03,11,16,28,3.50
2009,03,11,16,29,3.50
2009,03,11,16,30,3.40
2009,03,11,16,31,3.40
2009,03,11,16,32,3.50
2009,03,11,16,33,3.50
2009,03,11,16,34,3.50
2009,03,11,16,35,3.50
2009,03,11,16,36,3.60
2009,03,11,16,37,3.50
2009,03,11,16,38,3.50
2009,03,11,16,39,3.40
2009,03,11,16,40,3.40
2009,03,11,16,41,3.40
2009,03,11,16,42,3.40
2009,03,11,16,43,3.40
2009,03,11,16,44,3.40
2009,03,11,16,45,3.30
2009,03,11,16,46,3.40
2009,03,11,16,47,3.40
2009,03,11,16,48,3.40
2009,03,11,16,49,3.40
2009,03,11,16,50,3.40
2009,03,11,16,51,3.40
2009,03,11,16,52,3.40
2009,03,11,16,53,3.40
2009,03,11,16,54,3.40
2009,03,11,16,55,3.40
2009,03,11,16,56,3.40
2009,03,11,16,57,3.30
2009,03,11,16,58,3.30
2009,03,11,16,59,3.20
2009,03,11,17,00,3.20
2009,03,11,17,01,3.20
2009,03,11,17,02,3.30
2009,03,11,17,03,3.30
2009,03,11,17,04,3.40
2009,03,11,17,05,3.40
2009,03,11,17,06,3.40
2009,03,11,17,07,3.40
2009,03,11,17,08,3.50
2009,03,11,17,09,3.50
2009,03,11,17,10,3.50
2009,03,11,17,11,3.60
2009,03,11,17,12,3.60
2009,03,11,17,13,3.60
2009,03,11,17,14,3.60
2009,03,11,17,15,3.60
2009,03,11,17,16,3.60
2009,03,11,17,17,3.60
2009,03,11,17,18,3.60
2009,03,11,17,19,3.60
2009,03,11,17,20,3.60
2009,03,11,17,21,3.60
2009,03,11,17,22,3.60
2009,03,11,17,23,3.50
2009,03,11,17,24,3.50
2009,03,11,17,25,3.40
2009,03,11,17,26,3.30
2009,03,11,17,27,3.30
2009,03,11,17,30,3.20
2009,03,11,17,31,3.20
2009,03,11,17,32,3.20
2009,03,11,17,33,3.10
2009,03,11,17,34,3.10
2009,03,11,17,35,3.10
2009,03,11,17,36,3.10
2009,03,11,17,37,3.10
2009,03,11,17,38,3.10
2009,03,11,17,39,3.20
2009,03,11,17,40,3.20
2009,03,11,17,41,3.20